TimeCDT,TemperatureF,Dew PointF,Humidity,Sea Level PressureIn,VisibilityMPH,Wind Direction,Wind SpeedMPH,Gust SpeedMPH,PrecipitationIn,Events,Conditions,WindDirDegrees,DateUTC
12:53 AM,75.9,71.1,85,29.91,10.0,SSE,10.4,-,N/A,,Clear,150,2012-10-22 05:53:00
1:53 AM,75.0,71.1,87,29.90,10.0,SSE,10.4,-,N/A,,Clear,150,2012-10-22 06:53:00
2:53 AM,73.9,70.0,87,29.90,10.0,SSE,6.9,-,N/A,,Clear,150,2012-10-22 07:53:00
3:53 AM,73.9,70.0,87,29.88,10.0,SE,6.9,-,N/A,,Partly Cloudy,130,2012-10-22 08:53:00
4:53 AM,73.0,69.1,87,29.88,10.0,ESE,4.6,-,N/A,,Clear,120,2012-10-22 09:53:00
5:53 AM,72.0,69.1,91,29.89,10.0,ESE,6.9,-,N/A,,Clear,110,2012-10-22 10:53:00
6:53 AM,71.1,69.1,93,29.89,10.0,SE,4.6,-,N/A,,Clear,140,2012-10-22 11:53:00
7:53 AM,71.1,68.0,90,29.90,10.0,ESE,3.5,-,N/A,,Clear,120,2012-10-22 12:53:00
8:38 AM,73.4,71.6,94,29.92,10.0,SE,5.8,-,N/A,,Partly Cloudy,140,2012-10-22 13:38:00
8:53 AM,73.4,71.6,94,29.92,10.0,SE,8.1,-,N/A,,Partly Cloudy,140,2012-10-22 13:53:00
9:53 AM,79.0,72.0,79,29.93,10.0,SSE,12.7,-,N/A,,Partly Cloudy,160,2012-10-22 14:53:00
10:53 AM,82.9,72.0,69,29.93,10.0,SSE,15.0,23.0,N/A,,Mostly Cloudy,150,2012-10-22 15:53:00
11:10 AM,84.2,71.6,66,29.94,10.0,SSE,17.3,25.3,N/A,,Scattered Clouds,150,2012-10-22 16:10:00
11:53 AM,87.1,70.0,57,29.94,10.0,SE,19.6,25.3,N/A,,Scattered Clouds,140,2012-10-22 16:53:00
12:53 PM,89.1,68.0,50,29.91,10.0,SSE,18.4,24.2,N/A,,Scattered Clouds,160,2012-10-22 17:53:00
1:53 PM,91.0,68.0,47,29.88,10.0,SE,20.7,27.6,N/A,,Partly Cloudy,140,2012-10-22 18:53:00
2:53 PM,91.9,63.0,38,29.86,10.0,SE,19.6,26.5,N/A,,Clear,140,2012-10-22 19:53:00
3:53 PM,91.9,63.0,38,29.85,10.0,SE,20.7,25.3,N/A,,Partly Cloudy,130,2012-10-22 20:53:00
4:53 PM,91.0,64.0,41,29.85,10.0,SE,18.4,-,N/A,,Clear,130,2012-10-22 21:53:00
5:53 PM,89.1,66.0,46,29.85,10.0,SSE,18.4,-,N/A,,Clear,150,2012-10-22 22:53:00
6:53 PM,84.9,70.0,61,29.86,10.0,ESE,19.6,25.3,N/A,,Clear,120,2012-10-22 23:53:00
7:53 PM,82.0,70.0,67,29.88,10.0,SE,17.3,24.2,N/A,,Clear,130,2012-10-23 00:53:00
8:53 PM,81.0,71.1,72,29.90,10.0,SE,15.0,-,N/A,,Clear,130,2012-10-23 01:53:00
9:53 PM,80.1,71.1,74,29.92,10.0,ESE,15.0,-,N/A,,Clear,120,2012-10-23 02:53:00
10:53 PM,79.0,71.1,77,29.92,10.0,ESE,11.5,-,N/A,,Clear,120,2012-10-23 03:53:00
11:53 PM,78.1,71.1,79,29.91,10.0,SE,10.4,-,N/A,,Clear,130,2012-10-23 04:53:00